Back to catalog

STARLINK-11623

AliveCommunicationsVLEO
NORAD 63276·PAYLOAD·🇺🇸 United States

Launched Mar 15, 2025 from Cape Canaveral Space Force Station

Loading…

Next Passes (next 24 hours)

TLE

FreshSource: CelesTrak SupGP

Epoch: Sep 14, 2026, 14:26 UTC

1 63276C 25053M   26257.60187500  .00006660  00000+0  51774-4 0  2570
2 63276  43.0007  53.8656 0001622 262.4002 209.5380 15.70813216    12

Track STARLINK-11623 in real time with AllMySat

Download on the App Store